When you browse on this site, cookies collect data to enhance your experience and personalize the content and advertising you see.
Visit our Privacy Policy to learn more. By continuing to use the site, you agree to this use of cookies and data.
  • In Hungary
  • List of Countries
  • For 7 days
  • Water Temperature
  • Weather Map
  • News
  • Weather Widgets
  • user-avatar
    Login

    Hourly Weather Dalkowo

    Today, 12 November, Tuesday

    Time Temperature Precipitation Wind Pressure Humidity
    00:00 0°C° 0 mm 5 mps 747 mmHg 83%
    01:00 0°C° 0 mm 5 mps 747 mmHg 84%
    02:00 0°C° 0 mm 5 mps 746 mmHg 85%
    03:00 +1°C° 0 mm 4 mps 746 mmHg 87%
    04:00 +1°C° 0 mm 4 mps 745 mmHg 88%
    05:00 +1°C° 0 mm 4 mps 745 mmHg 88%
    06:00 +1°C° 0 mm 4 mps 745 mmHg 89%
    07:00 +3°C° 0 mm 4 mps 745 mmHg 89%
    08:00 +3°C° 0 mm 4 mps 745 mmHg 87%
    09:00 +4°C° 0 mm 4 mps 745 mmHg 85%
    10:00 +4°C° 0 mm 4 mps 745 mmHg 82%
    11:00 +5°C° 0.1 mm 3 mps 745 mmHg 81%
    12:00 +5°C° 0.1 mm 3 mps 745 mmHg 79%
    13:00 +6°C° 0.1 mm 2 mps 745 mmHg 77%
    14:00 +6°C° 0.3 mm 2 mps 745 mmHg 81%
    15:00 +5°C° 0.3 mm 2 mps 745 mmHg 85%
    16:00 +5°C° 0.3 mm 2 mps 745 mmHg 89%
    17:00 +5°C° 0.5 mm 2 mps 745 mmHg 90%
    18:00 +5°C° 0.5 mm 2 mps 745 mmHg 92%
    19:00 +5°C° 0.5 mm 2 mps 745 mmHg 93%
    20:00 +5°C° 0.3 mm 2 mps 745 mmHg 93%
    21:00 +6°C° 0.3 mm 1 mps 745 mmHg 94%
    22:00 +6°C° 0.3 mm 1 mps 744 mmHg 94%
    23:00 +6°C° 0.4 mm 1 mps 744 mmHg 95%

    Tomorrow, 13 November, Wednesday

    Time Temperature Precipitation Wind Pressure Humidity
    00:00 +5°C° 0.4 mm 0 mps 744 mmHg 96%
    01:00 +5°C° 0.4 mm 0 mps 744 mmHg 96%
    02:00 +5°C° 0.3 mm 0 mps 743 mmHg 96%
    03:00 +5°C° 0.3 mm 0 mps 743 mmHg 96%
    04:00 +6°C° 0.3 mm 1 mps 742 mmHg 95%
    05:00 +6°C° 0.1 mm 1 mps 742 mmHg 95%
    06:00 +6°C° 0.1 mm 1 mps 742 mmHg 95%
    07:00 +6°C° 0.1 mm 1 mps 742 mmHg 94%
    08:00 +6°C° 0.1 mm 1 mps 742 mmHg 94%
    09:00 +7°C° 0.1 mm 1 mps 741 mmHg 94%
    10:00 +7°C° 0.1 mm 1 mps 741 mmHg 93%
    11:00 +7°C° 0.1 mm 1 mps 741 mmHg 93%
    12:00 +6°C° 0.1 mm 2 mps 741 mmHg 92%
    13:00 +6°C° 0.1 mm 2 mps 741 mmHg 91%
    14:00 +6°C° 0.3 mm 2 mps 741 mmHg 92%
    15:00 +7°C° 0.3 mm 1 mps 741 mmHg 92%
    16:00 +6°C° 0.3 mm 1 mps 741 mmHg 92%
    17:00 +6°C° 0.1 mm 1 mps 742 mmHg 92%
    18:00 +6°C° 0.1 mm 1 mps 742 mmHg 92%
    19:00 +6°C° 0.1 mm 1 mps 742 mmHg 92%
    20:00 +5°C° 0.3 mm 2 mps 742 mmHg 92%
    21:00 +5°C° 0.3 mm 2 mps 742 mmHg 92%
    22:00 +5°C° 0.3 mm 2 mps 741 mmHg 92%
    23:00 +4°C° 3.1 mm 4 mps 741 mmHg 92%

    Day after tomorrow, 14 November, Thursday

    Time Temperature Precipitation Wind Pressure Humidity
    00:00 +3°C° 3.1 mm 5 mps 741 mmHg 93%
    01:00 +2°C° 3.1 mm 6 mps 740 mmHg 94%
    02:00 +2°C° 3 mm 6 mps 741 mmHg 94%
    03:00 +2°C° 3 mm 6 mps 741 mmHg 94%
    04:00 +2°C° 3 mm 6 mps 741 mmHg 94%
    05:00 +2°C° 0.1 mm 5 mps 742 mmHg 93%
    06:00 +3°C° 0.1 mm 4 mps 743 mmHg 92%
    07:00 +4°C° 0.1 mm 2 mps 744 mmHg 91%
    08:00 +4°C° 0 mm 2 mps 745 mmHg 89%
    09:00 +4°C° 0 mm 2 mps 746 mmHg 87%
    10:00 +5°C° 0 mm 2 mps 746 mmHg 85%
    11:00 +6°C° 0 mm 1 mps 747 mmHg 83%
    12:00 +7°C° 0 mm 1 mps 747 mmHg 80%
    13:00 +7°C° 0 mm 1 mps 748 mmHg 78%
    14:00 +7°C° 0 mm 1 mps 748 mmHg 79%
    15:00 +6°C° 0 mm 2 mps 748 mmHg 81%
    16:00 +5°C° 0 mm 2 mps 748 mmHg 82%
    17:00 +5°C° 0 mm 3 mps 748 mmHg 82%
    18:00 +5°C° 0 mm 3 mps 748 mmHg 83%
    19:00 +5°C° 0 mm 3 mps 749 mmHg 83%
    20:00 +4°C° 0 mm 4 mps 748 mmHg 84%
    21:00 +4°C° 0 mm 4 mps 748 mmHg 86%
    22:00 +4°C° 0 mm 4 mps 748 mmHg 88%
    23:00 +4°C° 0 mm 4 mps 748 mmHg 88%

    15 November, Friday

    Time Temperature Precipitation Wind Pressure Humidity
    00:00 +5°C° 0 mm 5 mps 747 mmHg 88%
    01:00 +5°C° 0 mm 5 mps 747 mmHg 88%
    02:00 +5°C° 0 mm 5 mps 747 mmHg 90%
    03:00 +5°C° 0 mm 5 mps 746 mmHg 92%
    04:00 +5°C° 0 mm 5 mps 746 mmHg 93%
    05:00 +5°C° 0 mm 6 mps 746 mmHg 94%
    06:00 +5°C° 0 mm 6 mps 746 mmHg 95%
    07:00 +7°C° 0 mm 6 mps 746 mmHg 96%
    08:00 +7°C° 0 mm 6 mps 746 mmHg 94%
    09:00 +8°C° 0 mm 5 mps 746 mmHg 92%
    10:00 +8°C° 0 mm 5 mps 746 mmHg 91%
    11:00 +9°C° 0 mm 5 mps 746 mmHg 88%
    12:00 +10°C° 0 mm 5 mps 746 mmHg 85%
    13:00 +11°C° 0 mm 6 mps 745 mmHg 83%
    14:00 +10°C° 0 mm 5 mps 745 mmHg 84%
    15:00 +10°C° 0 mm 5 mps 745 mmHg 86%
    16:00 +9°C° 0 mm 5 mps 745 mmHg 88%
    17:00 +9°C° 0 mm 5 mps 745 mmHg 89%
    18:00 +9°C° 0 mm 5 mps 745 mmHg 90%
    19:00 +8°C° 0 mm 5 mps 746 mmHg 91%
    20:00 +8°C° 0 mm 5 mps 746 mmHg 91%
    21:00 +8°C° 0 mm 4 mps 746 mmHg 92%
    22:00 +8°C° 0 mm 4 mps 746 mmHg 92%
    23:00 +8°C° 0 mm 4 mps 746 mmHg 92%

    16 November, Saturday

    Time Temperature Precipitation Wind Pressure Humidity
    00:00 +8°C° 0 mm 4 mps 746 mmHg 92%
    01:00 +8°C° 0 mm 4 mps 746 mmHg 93%
    02:00 +8°C° 0 mm 4 mps 746 mmHg 92%
    03:00 +8°C° 0 mm 4 mps 746 mmHg 91%
    04:00 +7°C° 0 mm 4 mps 745 mmHg 91%
    05:00 +8°C° 0 mm 4 mps 745 mmHg 89%
    06:00 +8°C° 0 mm 5 mps 745 mmHg 86%
    07:00 +8°C° 0 mm 5 mps 745 mmHg 84%
    08:00 +9°C° 0 mm 6 mps 745 mmHg 80%
    09:00 +10°C° 0 mm 6 mps 745 mmHg 76%
    10:00 +11°C° 0 mm 6 mps 746 mmHg 72%
    11:00 +11°C° 0 mm 6 mps 746 mmHg 71%
    12:00 +13°C° 0 mm 5 mps 746 mmHg 71%
    13:00 +13°C° 0 mm 5 mps 747 mmHg 71%
    14:00 +12°C° 0 mm 4 mps 747 mmHg 74%
    15:00 +11°C° 0 mm 3 mps 748 mmHg 77%
    16:00 +10°C° 0 mm 3 mps 748 mmHg 80%
    17:00 +9°C° 0 mm 2 mps 749 mmHg 79%
    18:00 +8°C° 0 mm 2 mps 749 mmHg 79%
    19:00 +8°C° 0 mm 1 mps 750 mmHg 79%
    20:00 +8°C° 0 mm 1 mps 750 mmHg 79%
    21:00 +8°C° 0 mm 1 mps 750 mmHg 79%
    22:00 +7°C° 0 mm 2 mps 751 mmHg 80%
    23:00 +7°C° 0 mm 2 mps 750 mmHg 81%

    17 November, Sunday

    Time Temperature Precipitation Wind Pressure Humidity
    00:00 +7°C° 0 mm 2 mps 750 mmHg 81%
    01:00 +7°C° 0 mm 3 mps 750 mmHg 82%
    02:00 +8°C° 0 mm 3 mps 750 mmHg 85%
    03:00 +8°C° 0 mm 3 mps 750 mmHg 88%
    04:00 +8°C° 0 mm 4 mps 749 mmHg 90%
    05:00 +8°C° 0 mm 4 mps 749 mmHg 90%
    06:00 +8°C° 0 mm 4 mps 749 mmHg 90%
    07:00 +8°C° 0 mm 5 mps 749 mmHg 89%
    08:00 +8°C° 0 mm 5 mps 749 mmHg 85%
    09:00 +9°C° 0 mm 5 mps 749 mmHg 82%
    10:00 +9°C° 0 mm 6 mps 749 mmHg 78%
    11:00 +10°C° 0 mm 6 mps 748 mmHg 77%
    12:00 +10°C° 0 mm 6 mps 748 mmHg 76%
    13:00 +11°C° 0 mm 6 mps 748 mmHg 74%
    14:00 +10°C° 0 mm 6 mps 748 mmHg 79%
    15:00 +9°C° 0 mm 5 mps 748 mmHg 83%
    16:00 +8°C° 0 mm 5 mps 747 mmHg 87%
    17:00 +8°C° 0 mm 5 mps 747 mmHg 88%
    18:00 +8°C° 0 mm 5 mps 747 mmHg 89%
    19:00 +8°C° 0 mm 5 mps 747 mmHg 90%
    20:00 +8°C° 0 mm 5 mps 747 mmHg 91%
    21:00 +8°C° 0 mm 5 mps 747 mmHg 92%
    22:00 +8°C° 0 mm 5 mps 747 mmHg 92%
    23:00 +8°C° 0 mm 5 mps 747 mmHg 93%
    Show more